Nenana, AK

8:26 PM AKDT on April 25, 2018 (GMT -0800)
Nenana Municipal

Weather History for PANN - November, 2012

Change the Weather History Date:

Friday, November 2, 2012

  Actual Average Record
Temperature  
Mean Temperature 20 °F -  
Max Temperature 17 °F 21 °F 64 °F (1962)
Min Temperature -11 °F 3 °F -13 °F (2008)
Degree Days  
Heating Degree Days 46    
Moisture  
Dew Point 0 °F    
Average Humidity 73    
Maximum Humidity 86    
Minimum Humidity 59    
Precipitation  
Precipitation 0.28 in - - ()
Sea Level Pressure  
Sea Level Pressure 29.78 in    
Wind  
Wind Speed 3 mph (NNE)    
Max Wind Speed 17 mph    
Max Gust Speed 18 mph    
Visibility 8 miles    
Events Rain , Snow    
Averages and records for this station are not official NWS values.
T = Trace of Precipitation, MM = Missing Value Source: NWS Daily Summary

Daily Weather History Graph

Daily Weather History Graph

Search for Another Location

Airport or City:

Astronomy

Nov. 02, 2012 Rise Set
Actual Time 9:47 AM AKDT 5:30 PM AKDT
Civil Twilight 8:52 AM AKDT 6:25 PM AKDT
Nautical Twilight 7:54 AM AKDT 7:24 PM AKDT
Astronomical Twilight 6:57 AM AKDT 8:20 PM AKDT
Moon 7:28 PM AKDT (11/2) 2:15 PM AKDT (11/2)
Length of Visible Light 9h 33m
Length of Day
7h 43m
Waning Gibbous, 86% of the Moon is Illuminated
Nov 2
Waning Gibbous
Nov 6
Last Quarter
Nov 13
New
Nov 20
First Quarter
Nov 28
Full

Hourly Weather History & Observations

Time (AKDT) Temp. Windchill Dew Point Humidity Pressure Visibility Wind Dir Wind Speed Gust Speed Precip Events Conditions
12:53 AM -2.0 °F - -8.0 °F 76% 30.07 in 10.0 mi Calm Calm - N/A   Clear
1:53 AM -2.9 °F - -9.0 °F 75% 30.05 in 10.0 mi Calm Calm - N/A   Clear
2:53 AM -5.1 °F - -11.0 °F 76% 30.03 in 10.0 mi Calm Calm - N/A   Clear
3:53 AM 6.1 °F -4.3 °F -0.0 °F 76% 30.01 in 10.0 mi NE 5.8 mph 18.4 mph N/A   Clear
4:53 AM -0.0 °F - -5.1 °F 79% 29.98 in 10.0 mi Calm Calm - N/A   Clear
5:53 AM -8.0 °F - -11.9 °F 83% 29.95 in 10.0 mi Calm Calm - N/A   Clear
6:53 AM -8.0 °F - -14.1 °F 75% 29.93 in 10.0 mi Calm Calm - N/A   Clear
7:53 AM -8.0 °F - -14.1 °F 75% 29.91 in 10.0 mi Calm Calm - N/A   Clear
8:53 AM -9.0 °F - -16.1 °F 71% 29.88 in 10.0 mi Calm Calm - N/A   Clear
9:53 AM -11.0 °F -20.4 °F -16.1 °F 78% 29.86 in 10.0 mi South 3.5 mph - N/A   Clear
10:53 AM -5.1 °F - -9.0 °F 83% 29.84 in 10.0 mi Calm Calm - N/A   Clear
11:53 AM -8.0 °F - -13.0 °F 79% 29.82 in 10.0 mi Calm Calm - N/A   Clear
12:53 PM -8.0 °F - -13.0 °F 79% 29.79 in 10.0 mi Calm Calm - N/A   Clear
1:53 PM -0.9 °F -8.9 °F -8.0 °F 72% 29.76 in 10.0 mi NNE 3.5 mph - N/A   Clear
2:53 PM 3.0 °F -6.4 °F -2.9 °F 76% 29.74 in 10.0 mi North 4.6 mph - N/A   Clear
3:53 PM 8.1 °F 1.4 °F 1.9 °F 76% 29.71 in 10.0 mi North 3.5 mph - N/A   Scattered Clouds
4:53 PM 12.0 °F 5.9 °F 1.9 °F 64% 29.69 in 10.0 mi NNE 3.5 mph - N/A   Overcast
5:53 PM 14.0 °F 3.9 °F 1.9 °F 59% 29.68 in 10.0 mi NE 6.9 mph - N/A   Mostly Cloudy
6:53 PM 15.1 °F 9.4 °F 3.0 °F 59% 29.68 in 10.0 mi NE 3.5 mph - N/A   Mostly Cloudy
7:53 PM 16.0 °F 7.4 °F 3.9 °F 59% 29.66 in 10.0 mi ENE 5.8 mph - N/A   Overcast
8:53 PM 17.1 °F 6.6 °F 6.1 °F 62% 29.66 in 10.0 mi NE 8.1 mph - N/A   Overcast
9:53 PM 16.0 °F 3.6 °F 9.0 °F 74% 29.66 in 2.5 mi NE 10.4 mph - 0.00 in Snow Light Snow
10:01 PM 15.8 °F 3.4 °F 8.6 °F 73% 29.61 in 2.5 mi NE 10.4 mph - 0.00 in Snow Light Snow
10:08 PM 15.8 °F 5.1 °F 8.6 °F 73% 29.61 in 3.0 mi NE 8.1 mph - 0.00 in Snow Light Snow
10:36 PM 15.8 °F 8.6 °F 8.6 °F 73% 29.61 in 1.8 mi Variable 4.6 mph - 0.00 in Snow Light Snow
10:53 PM 14.0 °F 8.2 °F 8.1 °F 77% 29.65 in 1.8 mi Variable 3.5 mph - 0.01 in Snow Light Snow
11:53 PM 12.9 °F 5.2 °F 7.0 °F 77% 29.66 in 2.5 mi NNW 4.6 mph - 0.01 in Snow Light Snow